Simultaneous Nadir Overpasses (SNOs) Predictions

Prediction of SNOs between GOES-15 and METOP-A Satellite Orbit:

Table of predicted SNOs for the next 14.0 days since TLE Epoch: 2/22/2020
Index Date Time (GOES-15) GOES-15 Lat,Lon METOP-A Lat,Lon Distance(km) Time Diff (sec)
1 02/22/2020 05:05:43 -0.03,-128.42 0.84,-124.59 436.78 80
2 02/23/2020 17:27:15 0.07,-128.45 0.23,-129.17 81.35 80
3 02/24/2020 17:03:56 0.05,-128.46 -0.92,-124.20 485.87 80
4 02/26/2020 05:25:35 -0.09,-128.44 -0.19,-128.81 42.60 80
5 02/28/2020 17:23:48 0.10,-128.47 0.11,-128.42 6.25 80
6 03/02/2020 05:19:30 -0.11,-128.44 -0.00,-128.07 42.73 80
7 03/03/2020 17:41:01 0.15,-128.46 1.07,-132.65 477.09 80
8 03/04/2020 17:17:43 0.12,-128.46 -0.08,-127.68 88.86 80
9 03/06/2020 05:39:22 -0.16,-128.41 -1.02,-132.29 442.33 80




NCC Satellite Simultaneous Nadir Overpasses (SNOs) Prediction Service
